カタログに戻る

SL-12 DEB

LostHEO
NORAD 39798·DEBRIS·🇷🇺 Russia

打ち上げ Sep 25, 2008 から Baikonur Cosmodrome

Loading…

次のパス (今後24時間)

TLE

古いSource: Space-Track

元期: Aug 31, 2022, 16:35 UTC

1 39798U 08046K   22243.69099779  .00010555  00000-0  54857-2 0  9990
2 39798  64.2514 140.9486 5741875 354.0701   1.3803  4.36475544127837

AllMySatでSL-12 DEBをリアルタイム追跡

Download on the App Store